Time,TemperatureF,DewpointF,PressureIn,WindDirection,WindDirectionDegrees,WindSpeedMPH,WindSpeedGustMPH,Humidity,HourlyPrecipIn,Conditions,Clouds,dailyrainin,SoftwareType,DateUTC
2013-03-11 00:02:00,29.0,27.0,29.96,ENE,74,1.0,-999.0,91,-99.99,,,-99.99,,2013-03-11 06:02:00,
2013-03-11 00:12:00,29.0,27.0,29.96,ENE,74,1.0,-999.0,91,-99.99,,,-99.99,,2013-03-11 06:12:00,
2013-03-11 00:22:00,29.0,26.0,29.94,ENE,74,0.0,-999.0,90,-99.99,,,-99.99,,2013-03-11 06:22:00,
2013-03-11 00:32:00,28.0,26.0,29.93,NE,42,3.0,-999.0,91,-99.99,,,-99.99,,2013-03-11 06:32:00,
2013-03-11 00:42:00,28.0,26.0,29.93,NE,42,3.0,-999.0,91,-99.99,,,-99.99,,2013-03-11 06:42:00,
2013-03-11 00:52:00,28.0,26.0,29.93,NE,34,3.0,-999.0,92,-99.99,,,-99.99,,2013-03-11 06:52:00,
2013-03-11 01:02:00,27.0,25.0,29.93,NNE,21,3.0,-999.0,91,-99.99,,,-99.99,,2013-03-11 07:02:00,
2013-03-11 01:12:00,27.0,25.0,29.93,NNE,21,3.0,-999.0,91,-99.99,,,-99.99,,2013-03-11 07:12:00,
2013-03-11 01:22:00,26.0,23.0,29.93,NNW,342,4.0,-999.0,90,-99.99,,,-99.99,,2013-03-11 07:22:00,
2013-03-11 01:32:00,26.0,24.0,29.94,NW,313,5.0,-999.0,91,-99.99,,,-99.99,,2013-03-11 07:32:00,
2013-03-11 01:42:00,26.0,24.0,29.94,NW,313,5.0,-999.0,91,-99.99,,,-99.99,,2013-03-11 07:42:00,
2013-03-11 01:52:00,25.0,22.0,29.94,West,260,2.0,-999.0,90,-99.99,,,-99.99,,2013-03-11 07:52:00,
2013-03-11 02:02:00,27.0,25.0,29.94,West,265,3.0,-999.0,93,-99.99,,,-99.99,,2013-03-11 08:02:00,
2013-03-11 02:12:00,27.0,25.0,29.94,West,265,3.0,-999.0,93,-99.99,,,-99.99,,2013-03-11 08:12:00,
2013-03-11 02:22:00,29.0,26.0,29.94,WSW,237,6.0,-999.0,88,-99.99,,,-99.99,,2013-03-11 08:22:00,
2013-03-11 02:32:00,32.0,29.0,29.95,WSW,242,8.0,-999.0,88,-99.99,,,-99.99,,2013-03-11 08:32:00,
2013-03-11 02:42:00,32.0,29.0,29.95,WSW,242,8.0,-999.0,88,-99.99,,,-99.99,,2013-03-11 08:42:00,
2013-03-11 02:52:00,33.0,29.0,29.95,West,266,9.0,-999.0,85,-99.99,,,-99.99,,2013-03-11 08:52:00,
2013-03-11 03:02:00,32.0,28.0,29.95,West,277,9.0,-999.0,85,-99.99,,,-99.99,,2013-03-11 09:02:00,
2013-03-11 03:12:00,32.0,28.0,29.95,West,277,9.0,-999.0,85,-99.99,,,-99.99,,2013-03-11 09:12:00,
2013-03-11 03:23:00,32.0,28.0,29.97,West,266,8.0,-999.0,85,-99.99,,,-99.99,,2013-03-11 09:23:00,
2013-03-11 03:32:00,33.0,28.0,29.97,West,261,13.0,-999.0,82,-99.99,,,-99.99,,2013-03-11 09:32:00,
2013-03-11 03:42:00,33.0,28.0,29.97,West,261,13.0,-999.0,82,-99.99,,,-99.99,,2013-03-11 09:42:00,
2013-03-11 03:52:00,33.0,28.0,29.98,West,274,15.0,-999.0,82,-99.99,,,-99.99,,2013-03-11 09:52:00,
2013-03-11 04:02:00,32.0,27.0,29.97,West,267,12.0,-999.0,82,-99.99,,,-99.99,,2013-03-11 10:02:00,
2013-03-11 04:12:00,32.0,27.0,29.97,West,267,12.0,-999.0,82,-99.99,,,-99.99,,2013-03-11 10:12:00,
2013-03-11 04:22:00,31.0,26.0,29.98,WSW,250,13.0,-999.0,83,-99.99,,,-99.99,,2013-03-11 10:22:00,
2013-03-11 04:32:00,30.0,26.0,29.99,West,271,16.0,-999.0,84,-99.99,,,-99.99,,2013-03-11 10:32:00,
2013-03-11 04:42:00,30.0,26.0,29.99,West,271,16.0,-999.0,84,-99.99,,,-99.99,,2013-03-11 10:42:00,
2013-03-11 04:52:00,29.0,25.0,29.99,West,267,17.0,-999.0,83,-99.99,,,-99.99,,2013-03-11 10:52:00,
2013-03-11 05:02:00,29.0,25.0,30.00,West,280,17.0,-999.0,84,-99.99,,,-99.99,,2013-03-11 11:02:00,
2013-03-11 05:12:00,29.0,25.0,30.00,West,280,17.0,-999.0,84,-99.99,,,-99.99,,2013-03-11 11:12:00,
2013-03-11 05:22:00,29.0,25.0,30.00,West,277,17.0,-999.0,83,-99.99,,,-99.99,,2013-03-11 11:22:00,
2013-03-11 05:32:00,28.0,23.0,30.00,West,270,16.0,-999.0,82,-99.99,,,-99.99,,2013-03-11 11:32:00,
2013-03-11 05:42:00,28.0,23.0,30.00,West,270,16.0,-999.0,82,-99.99,,,-99.99,,2013-03-11 11:42:00,
2013-03-11 05:52:00,28.0,24.0,30.01,WSW,253,18.0,-999.0,83,-99.99,,,-99.99,,2013-03-11 11:52:00,
2013-03-11 06:02:00,28.0,24.0,30.02,West,261,19.0,-999.0,83,-99.99,,,-99.99,,2013-03-11 12:02:00,
2013-03-11 06:12:00,28.0,24.0,30.02,West,261,19.0,-999.0,83,-99.99,,,-99.99,,2013-03-11 12:12:00,
2013-03-11 06:22:00,28.0,23.0,30.02,West,268,18.0,-999.0,82,-99.99,,,-99.99,,2013-03-11 12:22:00,
2013-03-11 06:32:00,28.0,23.0,30.03,West,278,21.0,-999.0,81,-99.99,,,-99.99,,2013-03-11 12:32:00,
2013-03-11 06:43:00,28.0,23.0,30.03,West,278,21.0,-999.0,81,-99.99,,,-99.99,,2013-03-11 12:43:00,
2013-03-11 06:52:00,28.0,23.0,30.04,West,270,14.0,-999.0,82,-99.99,,,-99.99,,2013-03-11 12:52:00,
2013-03-11 07:02:00,28.0,23.0,30.04,West,270,17.0,-999.0,81,-99.99,,,-99.99,,2013-03-11 13:02:00,
2013-03-11 07:12:00,28.0,23.0,30.04,West,270,17.0,-999.0,81,-99.99,,,-99.99,,2013-03-11 13:12:00,
2013-03-11 07:22:00,28.0,23.0,30.04,West,268,13.0,-999.0,81,-99.99,,,-99.99,,2013-03-11 13:22:00,
2013-03-11 07:32:00,28.0,23.0,30.05,West,274,17.0,-999.0,82,-99.99,,,-99.99,,2013-03-11 13:32:00,
2013-03-11 07:42:00,28.0,23.0,30.05,West,274,17.0,-999.0,82,-99.99,,,-99.99,,2013-03-11 13:42:00,
2013-03-11 07:52:00,27.0,22.0,30.05,West,263,14.0,-999.0,82,-99.99,,,-99.99,,2013-03-11 13:52:00,
2013-03-11 08:02:00,28.0,23.0,30.05,WSW,247,14.0,-999.0,81,-99.99,,,-99.99,,2013-03-11 14:02:00,
2013-03-11 08:12:00,28.0,23.0,30.05,WSW,247,14.0,-999.0,81,-99.99,,,-99.99,,2013-03-11 14:12:00,
2013-03-11 08:22:00,29.0,23.0,30.06,West,265,13.0,-999.0,79,-99.99,,,-99.99,,2013-03-11 14:22:00,
2013-03-11 08:33:00,29.0,23.0,30.06,WSW,257,14.0,-999.0,77,-99.99,,,-99.99,,2013-03-11 14:33:00,
2013-03-11 08:42:00,29.0,23.0,30.06,WSW,257,14.0,-999.0,77,-99.99,,,-99.99,,2013-03-11 14:42:00,
2013-03-11 08:52:00,29.0,23.0,30.06,West,265,12.0,-999.0,77,-99.99,,,-99.99,,2013-03-11 14:52:00,
2013-03-11 09:02:00,29.0,23.0,30.06,WSW,256,14.0,-999.0,77,-99.99,,,-99.99,,2013-03-11 15:02:00,
2013-03-11 09:12:00,29.0,23.0,30.06,WSW,256,14.0,-999.0,77,-99.99,,,-99.99,,2013-03-11 15:12:00,
2013-03-11 09:22:00,29.0,23.0,30.06,West,260,13.0,-999.0,78,-99.99,,,-99.99,,2013-03-11 15:22:00,
2013-03-11 09:32:00,29.0,23.0,30.06,SW,217,12.0,-999.0,78,-99.99,,,-99.99,,2013-03-11 15:32:00,
2013-03-11 09:42:00,29.0,23.0,30.06,SW,217,12.0,-999.0,78,-99.99,,,-99.99,,2013-03-11 15:42:00,
2013-03-11 09:52:00,30.0,24.0,30.07,WSW,244,15.0,-999.0,77,-99.99,,,-99.99,,2013-03-11 15:52:00,
2013-03-11 10:02:00,30.0,23.0,30.08,WSW,241,15.0,-999.0,76,-99.99,,,-99.99,,2013-03-11 16:02:00,
2013-03-11 10:12:00,30.0,23.0,30.08,WSW,241,15.0,-999.0,76,-99.99,,,-99.99,,2013-03-11 16:12:00,
2013-03-11 10:22:00,31.0,24.0,30.08,SSW,209,14.0,-999.0,74,-99.99,,,-99.99,,2013-03-11 16:22:00,
2013-03-11 10:32:00,32.0,25.0,30.08,West,265,13.0,-999.0,74,-99.99,,,-99.99,,2013-03-11 16:32:00,
2013-03-11 10:43:00,32.0,25.0,30.08,West,265,13.0,-999.0,74,-99.99,,,-99.99,,2013-03-11 16:43:00,
2013-03-11 10:52:00,32.0,24.0,30.08,West,267,16.0,-999.0,72,-99.99,,,-99.99,,2013-03-11 16:52:00,
2013-03-11 11:02:00,32.0,24.0,30.08,West,267,16.0,-999.0,72,-99.99,,,-99.99,,2013-03-11 17:02:00,
2013-03-11 11:15:00,32.0,24.0,30.08,West,267,16.0,-999.0,72,-99.99,,,-99.99,,2013-03-11 17:15:00,
2013-03-11 11:25:00,33.0,23.0,30.08,SW,234,17.0,-999.0,67,-99.99,,,-99.99,,2013-03-11 17:25:00,
2013-03-11 11:35:00,34.0,24.0,30.08,West,271,20.0,-999.0,67,-99.99,,,-99.99,,2013-03-11 17:35:00,
2013-03-11 11:42:00,34.0,24.0,30.08,West,271,20.0,-999.0,67,-99.99,,,-99.99,,2013-03-11 17:42:00,
2013-03-11 11:52:00,34.0,23.0,30.08,WSW,254,18.0,-999.0,65,-99.99,,,-99.99,,2013-03-11 17:52:00,
2013-03-11 12:02:00,35.0,24.0,30.09,WNW,299,19.0,-999.0,63,-99.99,,,-99.99,,2013-03-11 18:02:00,
2013-03-11 12:12:00,35.0,24.0,30.09,WNW,299,19.0,-999.0,63,-99.99,,,-99.99,,2013-03-11 18:12:00,
2013-03-11 12:22:00,35.0,24.0,30.09,WNW,299,19.0,-999.0,63,-99.99,,,-99.99,,2013-03-11 18:22:00,
2013-03-11 12:32:00,35.0,22.0,30.09,WSW,252,22.0,-999.0,58,-99.99,,,-99.99,,2013-03-11 18:32:00,
2013-03-11 12:43:00,35.0,22.0,30.09,WSW,252,22.0,-999.0,58,-99.99,,,-99.99,,2013-03-11 18:43:00,
2013-03-11 12:53:00,35.0,22.0,30.09,West,269,24.0,-999.0,59,-99.99,,,-99.99,,2013-03-11 18:53:00,
2013-03-11 13:02:00,35.0,22.0,30.09,West,279,27.0,-999.0,58,-99.99,,,-99.99,,2013-03-11 19:02:00,
2013-03-11 13:12:00,35.0,22.0,30.09,West,279,27.0,-999.0,58,-99.99,,,-99.99,,2013-03-11 19:12:00,
2013-03-11 13:22:00,35.0,22.0,30.09,West,277,29.0,-999.0,59,-99.99,,,-99.99,,2013-03-11 19:22:00,
2013-03-11 13:32:00,35.0,22.0,30.09,West,266,29.0,-999.0,59,-99.99,,,-99.99,,2013-03-11 19:32:00,
2013-03-11 13:42:00,35.0,22.0,30.09,West,266,29.0,-999.0,59,-99.99,,,-99.99,,2013-03-11 19:42:00,
2013-03-11 13:52:00,35.0,23.0,30.08,West,273,31.0,-999.0,61,-99.99,,,-99.99,,2013-03-11 19:52:00,
2013-03-11 14:02:00,35.0,23.0,30.08,WSW,255,30.0,-999.0,60,-99.99,,,-99.99,,2013-03-11 20:02:00,
2013-03-11 14:12:00,35.0,23.0,30.08,WSW,255,30.0,-999.0,60,-99.99,,,-99.99,,2013-03-11 20:12:00,
2013-03-11 14:22:00,35.0,23.0,30.07,West,275,35.0,-999.0,61,-99.99,,,-99.99,,2013-03-11 20:22:00,
2013-03-11 14:32:00,35.0,23.0,30.07,West,273,32.0,-999.0,61,-99.99,,,-99.99,,2013-03-11 20:32:00,
2013-03-11 14:43:00,35.0,23.0,30.07,West,273,32.0,-999.0,61,-99.99,,,-99.99,,2013-03-11 20:43:00,
2013-03-11 14:52:00,35.0,23.0,30.07,SW,232,32.0,-999.0,60,-99.99,,,-99.99,,2013-03-11 20:52:00,
2013-03-11 15:03:00,34.0,23.0,30.08,West,273,34.0,-999.0,64,-99.99,,,-99.99,,2013-03-11 21:03:00,
2013-03-11 15:12:00,34.0,23.0,30.08,West,273,34.0,-999.0,64,-99.99,,,-99.99,,2013-03-11 21:12:00,
2013-03-11 15:22:00,34.0,23.0,30.08,West,273,35.0,-999.0,65,-99.99,,,-99.99,,2013-03-11 21:22:00,
2013-03-11 15:32:00,32.0,23.0,30.09,West,277,36.0,-999.0,69,-99.99,,,-99.99,,2013-03-11 21:32:00,
2013-03-11 15:43:00,32.0,23.0,30.09,West,277,36.0,-999.0,69,-99.99,,,-99.99,,2013-03-11 21:43:00,
2013-03-11 15:52:00,32.0,23.0,30.10,West,269,35.0,-999.0,69,-99.99,,,-99.99,,2013-03-11 21:52:00,
2013-03-11 16:02:00,32.0,23.0,30.10,West,275,36.0,-999.0,68,-99.99,,,-99.99,,2013-03-11 22:02:00,
2013-03-11 16:12:00,32.0,23.0,30.10,West,275,36.0,-999.0,68,-99.99,,,-99.99,,2013-03-11 22:12:00,
2013-03-11 16:22:00,32.0,25.0,30.11,West,274,35.0,-999.0,74,-99.99,,,-99.99,,2013-03-11 22:22:00,
2013-03-11 16:32:00,31.0,23.0,30.12,West,274,37.0,-999.0,73,-99.99,,,-99.99,,2013-03-11 22:32:00,
2013-03-11 16:43:00,31.0,23.0,30.12,West,274,37.0,-999.0,73,-99.99,,,-99.99,,2013-03-11 22:43:00,
2013-03-11 16:52:00,29.0,22.0,30.14,West,271,35.0,-999.0,75,-99.99,,,-99.99,,2013-03-11 22:52:00,
2013-03-11 17:03:00,29.0,21.0,30.14,West,267,35.0,-999.0,71,-99.99,,,-99.99,,2013-03-11 23:03:00,
2013-03-11 17:12:00,29.0,21.0,30.14,West,267,35.0,-999.0,71,-99.99,,,-99.99,,2013-03-11 23:12:00,
2013-03-11 17:22:00,29.0,21.0,30.16,West,271,33.0,-999.0,72,-99.99,,,-99.99,,2013-03-11 23:22:00,
2013-03-11 17:32:00,28.0,20.0,30.17,West,280,32.0,-999.0,72,-99.99,,,-99.99,,2013-03-11 23:32:00,
2013-03-11 17:43:00,28.0,20.0,30.17,West,280,32.0,-999.0,72,-99.99,,,-99.99,,2013-03-11 23:43:00,
2013-03-11 17:52:00,28.0,20.0,30.18,West,280,33.0,-999.0,72,-99.99,,,-99.99,,2013-03-11 23:52:00,
2013-03-11 18:02:00,28.0,20.0,30.18,West,269,32.0,-999.0,72,-99.99,,,-99.99,,2013-03-12 00:02:00,
2013-03-11 18:12:00,28.0,20.0,30.18,West,269,32.0,-999.0,72,-99.99,,,-99.99,,2013-03-12 00:12:00,
2013-03-11 18:22:00,28.0,20.0,30.20,West,279,26.0,-999.0,73,-99.99,,,-99.99,,2013-03-12 00:22:00,
2013-03-11 18:33:00,27.0,20.0,30.21,WNW,295,26.0,-999.0,74,-99.99,,,-99.99,,2013-03-12 00:33:00,
2013-03-11 18:42:00,27.0,20.0,30.21,WNW,295,26.0,-999.0,74,-99.99,,,-99.99,,2013-03-12 00:42:00,
2013-03-11 18:53:00,27.0,20.0,30.22,WNW,292,23.0,-999.0,75,-99.99,,,-99.99,,2013-03-12 00:53:00,
2013-03-11 19:02:00,27.0,20.0,30.22,West,281,24.0,-999.0,76,-99.99,,,-99.99,,2013-03-12 01:02:00,
2013-03-11 19:12:00,27.0,20.0,30.22,West,281,24.0,-999.0,76,-99.99,,,-99.99,,2013-03-12 01:12:00,
2013-03-11 19:22:00,26.0,19.0,30.23,West,279,24.0,-999.0,76,-99.99,,,-99.99,,2013-03-12 01:22:00,
2013-03-11 19:32:00,26.0,19.0,30.23,WNW,287,29.0,-999.0,76,-99.99,,,-99.99,,2013-03-12 01:32:00,
2013-03-11 19:42:00,26.0,19.0,30.23,WNW,287,29.0,-999.0,76,-99.99,,,-99.99,,2013-03-12 01:42:00,
2013-03-11 19:52:00,25.0,18.0,30.24,West,280,28.0,-999.0,75,-99.99,,,-99.99,,2013-03-12 01:52:00,
2013-03-11 20:02:00,24.0,18.0,30.24,West,267,27.0,-999.0,77,-99.99,,,-99.99,,2013-03-12 02:02:00,
2013-03-11 20:12:00,24.0,18.0,30.24,West,267,27.0,-999.0,77,-99.99,,,-99.99,,2013-03-12 02:12:00,
2013-03-11 20:22:00,24.0,18.0,30.25,WNW,284,25.0,-999.0,77,-99.99,,,-99.99,,2013-03-12 02:22:00,
2013-03-11 20:32:00,23.0,17.0,30.25,West,281,22.0,-999.0,78,-99.99,,,-99.99,,2013-03-12 02:32:00,
2013-03-11 20:42:00,23.0,17.0,30.25,West,281,22.0,-999.0,78,-99.99,,,-99.99,,2013-03-12 02:42:00,
2013-03-11 20:52:00,23.0,17.0,30.25,West,271,24.0,-999.0,79,-99.99,,,-99.99,,2013-03-12 02:52:00,
2013-03-11 21:02:00,23.0,17.0,30.26,West,268,24.0,-999.0,79,-99.99,,,-99.99,,2013-03-12 03:02:00,
2013-03-11 21:12:00,23.0,17.0,30.26,West,268,24.0,-999.0,79,-99.99,,,-99.99,,2013-03-12 03:12:00,
2013-03-11 21:22:00,23.0,17.0,30.27,West,271,24.0,-999.0,79,-99.99,,,-99.99,,2013-03-12 03:22:00,
2013-03-11 21:32:00,23.0,17.0,30.28,West,279,19.0,-999.0,79,-99.99,,,-99.99,,2013-03-12 03:32:00,
2013-03-11 21:42:00,23.0,17.0,30.28,West,279,19.0,-999.0,79,-99.99,,,-99.99,,2013-03-12 03:42:00,
2013-03-11 21:52:00,23.0,18.0,30.29,West,269,14.0,-999.0,80,-99.99,,,-99.99,,2013-03-12 03:52:00,
2013-03-11 22:02:00,22.0,17.0,30.30,West,271,12.0,-999.0,80,-99.99,,,-99.99,,2013-03-12 04:02:00,
2013-03-11 22:13:00,22.0,17.0,30.30,West,271,12.0,-999.0,80,-99.99,,,-99.99,,2013-03-12 04:13:00,
2013-03-11 22:22:00,22.0,17.0,30.31,WSW,257,11.0,-999.0,81,-99.99,,,-99.99,,2013-03-12 04:22:00,
2013-03-11 22:32:00,21.0,17.0,30.31,WSW,249,8.0,-999.0,83,-99.99,,,-99.99,,2013-03-12 04:32:00,
2013-03-11 22:43:00,21.0,17.0,30.31,WSW,249,8.0,-999.0,83,-99.99,,,-99.99,,2013-03-12 04:43:00,
2013-03-11 22:52:00,21.0,17.0,30.31,WSW,247,9.0,-999.0,84,-99.99,,,-99.99,,2013-03-12 04:52:00,
2013-03-11 23:02:00,21.0,17.0,30.32,West,273,13.0,-999.0,83,-99.99,,,-99.99,,2013-03-12 05:02:00,
2013-03-11 23:12:00,21.0,17.0,30.32,West,273,13.0,-999.0,83,-99.99,,,-99.99,,2013-03-12 05:12:00,
2013-03-11 23:22:00,21.0,17.0,30.32,West,275,14.0,-999.0,83,-99.99,,,-99.99,,2013-03-12 05:22:00,
2013-03-11 23:32:00,20.0,16.0,30.34,WSW,255,11.0,-999.0,83,-99.99,,,-99.99,,2013-03-12 05:32:00,
2013-03-11 23:42:00,20.0,16.0,30.34,WSW,255,11.0,-999.0,83,-99.99,,,-99.99,,2013-03-12 05:42:00,
2013-03-11 23:52:00,20.0,16.0,30.34,SW,236,10.0,-999.0,84,-99.99,,,-99.99,,2013-03-12 05:52:00,